Station Historical Data
 
Daily Summary for May 24, 2018 Units:  English    Metric   Both
« Previous Day
Next Day »
Daily Weekly Monthly Yearly Custom
  Current: High: Low: Average:
Temperature: 55.1 °F TemperatureF °F 55.1 °F 58.3 °F
Dew Point: 52.5 °F DewpointF °F 52.5 °F 54.4 °F
Humidity: 91% Humidity% 81% 86%
Wind Speed: 2.0mph WindSpeedMPHmph 0.7mph 3mph
Wind Gust: 19.6mph WindSpeedGustMPHmph - -
WindWSW - - West
Pressure: 30.09 in PressureIn in 30.03 in -
Precipitation: 0.00 in      
Historical Graphs
 
 
Tabular Data for May 24, 2018
Time Temperature Dew Point Pressure Wind Wind Speed Wind Gust Humidity Rainfall Rate (Hourly) solar Conditions
TemperatureF °F DewpointF °F PressureIn in Calm     Humidity% HourlyPrecipIn in SoftwareType W/m2 Conditions
00:02 62.8 °F 56.9 °F 30.03 in West 4.5 mph 19.6 mph 81% 0.00 in WeatherDisplay:10.37 W/m2 RA
00:07 62.7 °F 56.8 °F 30.03 in WSW 4.9 mph 19.6 mph 81% 0.00 in WeatherDisplay:10.37 W/m2 RA
00:12 62.5 °F 56.9 °F 30.04 in West 3.1 mph 19.6 mph 82% 0.00 in WeatherDisplay:10.37 W/m2 CLR
00:17 62.4 °F 56.8 °F 30.04 in West 3.1 mph 19.6 mph 82% 0.00 in WeatherDisplay:10.37 W/m2 CLR
00:22 62.3 °F 56.7 °F 30.04 in WNW 2.2 mph 19.6 mph 82% 0.00 in WeatherDisplay:10.37 W/m2 CLR
00:27 62.1 °F 56.5 °F 30.04 in West 3.5 mph 19.6 mph 82% 0.00 in WeatherDisplay:10.37 W/m2 CLR
00:32 61.9 °F 56.3 °F 30.04 in West 5.2 mph 19.6 mph 82% 0.00 in WeatherDisplay:10.37 W/m2 CLR
00:37 61.9 °F 56.3 °F 30.04 in West 3.0 mph 19.6 mph 82% 0.00 in WeatherDisplay:10.37 W/m2 CLR
00:42 61.8 °F 56.6 °F 30.04 in WSW 2.9 mph 19.6 mph 83% 0.00 in WeatherDisplay:10.37 W/m2 CLR
00:47 61.8 °F 56.6 °F 30.04 in WSW 3.7 mph 19.6 mph 83% 0.00 in WeatherDisplay:10.37 W/m2 CLR
00:52 61.8 °F 56.6 °F 30.04 in WSW 3.6 mph 19.6 mph 83% 0.00 in WeatherDisplay:10.37 W/m2 CLR
00:57 61.7 °F 56.5 °F 30.05 in West 3.2 mph 19.6 mph 83% 0.00 in WeatherDisplay:10.37 W/m2 CLR
01:02 61.6 °F 56.4 °F 30.04 in West 4.3 mph 19.6 mph 83% 0.00 in WeatherDisplay:10.37 W/m2 CLR
01:07 61.5 °F 56.3 °F 30.05 in WSW 4.7 mph 19.6 mph 83% 0.00 in WeatherDisplay:10.37 W/m2 CLR
01:12 61.5 °F 56.3 °F 30.04 in WSW 4.9 mph 19.6 mph 83% 0.00 in WeatherDisplay:10.37 W/m2 CLR
01:17 61.6 °F 56.4 °F 30.04 in West 4.6 mph 19.6 mph 83% 0.00 in WeatherDisplay:10.37 W/m2 CLR
01:22 61.7 °F 56.5 °F 30.04 in WSW 4.6 mph 19.6 mph 83% 0.00 in WeatherDisplay:10.37 W/m2 CLR
01:27 61.6 °F 56.4 °F 30.04 in West 5.4 mph 19.6 mph 83% 0.00 in WeatherDisplay:10.37 W/m2 CLR
01:32 61.6 °F 56.4 °F 30.04 in West 4.2 mph 19.6 mph 83% 0.00 in WeatherDisplay:10.37 W/m2 CLR
01:37 61.5 °F 56.3 °F 30.05 in WSW 4.2 mph 19.6 mph 83% 0.00 in WeatherDisplay:10.37 W/m2 CLR
01:42 61.5 °F 56.3 °F 30.04 in West 3.2 mph 19.6 mph 83% 0.00 in WeatherDisplay:10.37 W/m2 CLR
01:47 61.3 °F 56.1 °F 30.04 in West 3.7 mph 19.6 mph 83% 0.00 in WeatherDisplay:10.37 W/m2 CLR
01:52 61.2 °F 56.0 °F 30.04 in West 3.1 mph 19.6 mph 83% 0.00 in WeatherDisplay:10.37 W/m2 CLR
01:57 61.0 °F 56.1 °F 30.04 in West 4.1 mph 19.6 mph 84% 0.00 in WeatherDisplay:10.37 W/m2 CLR
02:02 60.9 °F 56.0 °F 30.05 in WNW 5.3 mph 19.6 mph 84% 0.00 in WeatherDisplay:10.37 W/m2 CLR
02:07 60.8 °F 56.3 °F 30.05 in West 3.4 mph 19.6 mph 85% 0.00 in WeatherDisplay:10.37 W/m2 CLR
02:12 60.7 °F 56.2 °F 30.04 in WNW 3.7 mph 19.6 mph 85% 0.00 in WeatherDisplay:10.37 W/m2 CLR
02:17 60.6 °F 56.1 °F 30.05 in WNW 2.6 mph 19.6 mph 85% 0.00 in WeatherDisplay:10.37 W/m2 CLR
02:22 60.5 °F 56.0 °F 30.04 in WNW 4.9 mph 19.6 mph 85% 0.00 in WeatherDisplay:10.37 W/m2 CLR
02:27 60.4 °F 56.2 °F 30.05 in WSW 4.4 mph 19.6 mph 86% 0.00 in WeatherDisplay:10.37 W/m2 CLR
02:32 60.3 °F 56.1 °F 30.05 in WSW 3.1 mph 19.6 mph 86% 0.00 in WeatherDisplay:10.37 W/m2 CLR
02:37 60.2 °F 56.0 °F 30.05 in West 2.1 mph 19.6 mph 86% 0.00 in WeatherDisplay:10.37 W/m2 CLR
02:42 60.0 °F 55.8 °F 30.05 in West 2.0 mph 19.6 mph 86% 0.00 in WeatherDisplay:10.37 W/m2 CLR
02:47 59.8 °F 55.6 °F 30.05 in West 2.3 mph 19.6 mph 86% 0.00 in WeatherDisplay:10.37 W/m2 CLR
02:52 59.6 °F 55.4 °F 30.06 in WNW 4.2 mph 19.6 mph 86% 0.00 in WeatherDisplay:10.37 W/m2 CLR
02:57 59.3 °F 55.4 °F 30.06 in West 3.1 mph 19.6 mph 87% 0.00 in WeatherDisplay:10.37 W/m2 CLR
03:02 59.1 °F 55.2 °F 30.06 in WNW 3.5 mph 19.6 mph 87% 0.00 in WeatherDisplay:10.37 W/m2 CLR
03:07 58.9 °F 55.4 °F 30.06 in West 2.7 mph 19.6 mph 88% 0.00 in WeatherDisplay:10.37 W/m2 CLR
03:12 58.8 °F 55.3 °F 30.06 in West 2.8 mph 19.6 mph 88% 0.00 in WeatherDisplay:10.37 W/m2 CLR
03:17 58.6 °F 55.1 °F 30.05 in West 1.9 mph 19.6 mph 88% 0.00 in WeatherDisplay:10.37 W/m2 CLR
03:22 58.5 °F 55.3 °F 30.06 in WNW 2.0 mph 19.6 mph 89% 0.00 in WeatherDisplay:10.37 W/m2 CLR
03:27 58.4 °F 55.2 °F 30.06 in West 1.8 mph 19.6 mph 89% 0.00 in WeatherDisplay:10.37 W/m2 CLR
03:32 58.2 °F 55.0 °F 30.06 in West 1.9 mph 19.6 mph 89% 0.00 in WeatherDisplay:10.37 W/m2 CLR
03:37 58.1 °F 54.9 °F 30.06 in West 2.6 mph 19.6 mph 89% 0.00 in WeatherDisplay:10.37 W/m2 CLR
03:42 57.9 °F 54.7 °F 30.06 in West 2.3 mph 19.6 mph 89% 0.00 in WeatherDisplay:10.37 W/m2 CLR
03:47 57.8 °F 54.6 °F 30.06 in West 3.4 mph 19.6 mph 89% 0.00 in WeatherDisplay:10.37 W/m2 CLR
03:52 57.6 °F 54.7 °F 30.06 in West 2.9 mph 19.6 mph 90% 0.00 in WeatherDisplay:10.37 W/m2 CLR
03:57 57.6 °F 54.7 °F 30.06 in WSW 3.7 mph 19.6 mph 90% 0.00 in WeatherDisplay:10.37 W/m2 CLR
04:02 57.6 °F 54.7 °F 30.06 in West 3.8 mph 19.6 mph 90% 0.00 in WeatherDisplay:10.37 W/m2 CLR
04:07 57.5 °F 54.6 °F 30.06 in West 3.2 mph 19.6 mph 90% 0.00 in WeatherDisplay:10.37 W/m2 CLR
04:12 57.5 °F 54.6 °F 30.06 in WNW 2.5 mph 19.6 mph 90% 0.00 in WeatherDisplay:10.37 W/m2 CLR
04:17 57.5 °F 54.6 °F 30.06 in West 2.2 mph 19.6 mph 90% 0.00 in WeatherDisplay:10.37 W/m2 CLR
04:22 57.4 °F 54.5 °F 30.06 in WSW 2.0 mph 19.6 mph 90% 0.00 in WeatherDisplay:10.37 W/m2 CLR
04:27 57.3 °F 54.4 °F 30.06 in West 2.5 mph 19.6 mph 90% 0.00 in WeatherDisplay:10.37 W/m2 CLR
04:32 57.2 °F 54.3 °F 30.06 in WSW 3.4 mph 19.6 mph 90% 0.00 in WeatherDisplay:10.37 W/m2 CLR
04:37 57.2 °F 54.3 °F 30.06 in WSW 3.3 mph 19.6 mph 90% 0.00 in WeatherDisplay:10.37 W/m2 CLR
04:40 57.1 °F 54.2 °F 30.06 in West 3.5 mph 19.6 mph 90% 0.00 in WeatherDisplay:10.37 W/m2 CLR
04:45 57.0 °F 54.1 °F 30.06 in WSW 2.8 mph 19.6 mph 90% 0.00 in WeatherDisplay:10.37 W/m2 CLR
04:50 56.8 °F 53.9 °F 30.07 in WSW 2.5 mph 19.6 mph 90% 0.00 in WeatherDisplay:10.37 W/m2 CLR
04:55 56.7 °F 53.8 °F 30.07 in West 2.1 mph 19.6 mph 90% 0.00 in WeatherDisplay:10.37 W/m2 CLR
05:00 56.5 °F 53.6 °F 30.07 in West 1.6 mph 19.6 mph 90% 0.00 in WeatherDisplay:10.37 W/m2 CLR
05:05 56.4 °F 53.5 °F 30.07 in WSW 2.6 mph 19.6 mph 90% 0.00 in WeatherDisplay:10.37 W/m2 CLR
05:10 56.1 °F 53.2 °F 30.07 in WSW 2.5 mph 19.6 mph 90% 0.00 in WeatherDisplay:10.37 W/m2 CLR
05:15 55.9 °F 53.3 °F 30.07 in West 1.9 mph 19.6 mph 91% 0.00 in WeatherDisplay:10.37 W/m2 CLR
05:20 55.8 °F 53.2 °F 30.07 in WSW 1.8 mph 19.6 mph 91% 0.00 in WeatherDisplay:10.37 W/m2 CLR
05:25 55.7 °F 53.1 °F 30.08 in WSW 1.5 mph 19.6 mph 91% 0.00 in WeatherDisplay:10.37 W/m2 CLR
05:30 55.7 °F 53.1 °F 30.08 in SW 1.9 mph 19.6 mph 91% 0.00 in WeatherDisplay:10.37 W/m2 CLR
05:35 55.5 °F 53.2 °F 30.08 in WSW 2.1 mph 19.6 mph 92% 0.00 in WeatherDisplay:10.37 W/m2 CLR
05:40 55.5 °F 53.2 °F 30.08 in WSW 1.6 mph 19.6 mph 92% 0.00 in WeatherDisplay:10.37 W/m2 CLR
05:45 55.4 °F 53.1 °F 30.08 in West 1.9 mph 19.6 mph 92% 0.00 in WeatherDisplay:10.37 W/m2 CLR
05:50 55.3 °F 52.7 °F 30.08 in West 2.0 mph 19.6 mph 91% 0.00 in WeatherDisplay:10.37 W/m2 CLR
05:56 55.2 °F 52.6 °F 30.09 in WSW 1.2 mph 19.6 mph 91% 0.00 in WeatherDisplay:10.37 W/m2 CLR
06:01 55.2 °F 52.6 °F 30.09 in WSW 0.7 mph 19.6 mph 91% 0.00 in WeatherDisplay:10.37 W/m2 CLR
06:06 55.1 °F 52.5 °F 30.09 in WSW 2.0 mph 19.6 mph 91% 0.00 in WeatherDisplay:10.37 W/m2 CLR
East Vincent, PA, USA
Compliments of Weather Underground - 2.75 mb